TIME,DELAY(SENSOR),PRES,OXYGEN,RAWTEMP,T(OPTODE),TCPHASE,FLUOR,BETA(BETA700),BETA(BETA412),BETA(BETA440),CDOM,C(CSC),ED(ED411.90),ED(ED443.80),ED(ED489.40),ED(ED554.70),LU(LU412.20),LU(LU443.80),LU(LU489.40),LU(LU555.00),COMP,TILTX,TILTY,CHECK
1369949583,5807,836.0599975585938000,153.6412963867187500,413.8405151367187500,10.1804103851318360,39.6941108703613300,53,102,96,79,79,10240,2146960658,2147514523,2147283940,2147497334,2147086454,2146931721,2147699483,2147121682,863,-1,8,61056
1369953179,5808,972.4699707031250000,156.7785949707031200,493.4513854980469000,7.7325139045715330,40.7735290527343750,53,133,103,84,80,10201,2146960310,2147519835,2147293357,2147512566,2147087625,2146928155,2147713910,2147121709,2723,0,8,26380
1369956779,5807,991.7100219726562000,180.9602966308593800,493.7432861328125000,7.7234711647033690,39.0242805480957000,52,109,97,79,80,10231,2146963565,2147516754,2147294546,2147508644,2147086400,2146927140,2147715821,2147121334,829,-1,8,28323
1369960379,5808,989.9699707031250000,175.6065979003906200,493.8193969726562500,7.7211151123046875,39.3951416015625000,53,109,97,80,81,10225,2146962276,2147518985,2147296384,2147511981,2147084233,2146923538,2147715986,2147121472,884,0,8,38450
1369963979,5805,997.7800292968750000,183.7539978027343800,493.6943969726562500,7.7249889373779300,38.8344993591308600,52,109,96,79,79,10226,2146963456,2147517805,2147294299,2147508132,2147086985,2146925001,2147715337,2147120566,1330,-1,8,20481
1369967579,5806,995.9699707031250000,182.7366027832031200,494.6731872558594000,7.6946578025817870,38.9203300476074200,53,105,95,82,80,10223,2146959314,2147518948,2147293485,2147511917,2147087798,2146923346,2147716635,2147120795,942,0,8,46216
1369971179,5806,989.5100097656250000,177.1493988037109400,496.5580139160156000,7.6362400054931640,39.3347511291503900,52,132,98,78,79,10220,2146962240,2147519323,2147293577,2147513088,2147086610,2146921709,2147719643,2147120731,854,0,8,13958
1369974779,5806,992.6400146484375000,175.9851989746093800,497.3872070312500000,7.6105308532714840,39.4303703308105500,52,114,98,79,79,10221,2146960621,2147519268,2147294829,2147511030,2147085833,2146921344,2147715428,2147122816,640,0,8,60919
1369978379,5806,995.9699707031250000,179.6450958251953000,498.1700134277344000,7.5862579345703125,39.1904792785644500,52,100,98,80,79,10218,2146960868,2147518107,2147297819,2147510272,2147084882,2146920987,2147715904,2147120777,611,0,8,64498
1369981979,5806,995.4600219726562000,167.3623962402343800,499.3803100585937500,7.5487170219421390,40.0800018310546900,52,117,97,79,80,10221,2146960164,2147521060,2147298505,2147512713,2147085504,2146925266,2147718646,2147118765,3518,-1,8,7172
1369985579,5805,994.3200073242188000,180.7265014648437500,498.4776916503906000,7.5767140388488770,39.1223716735839840,53,107,97,83,81,10143,2146960438,2147518829,2147295734,2147512228,2147086153,2146925741,2147715803,2147117760,777,-1,8,50220
1369989179,5807,1000.1599731445312000,173.9797973632812500,498.6090087890625000,7.5726418495178220,39.5919494628906250,53,108,100,80,81,10141,2146963035,2147519634,2147294409,2147510400,2147089572,2146925796,2147713197,2147118025,3553,0,8,16840
1369992779,5806,1000.9299926757812000,189.1558074951172000,497.7799987792969000,7.5983510017395020,38.5483818054199200,52,105,96,79,80,10145,2146963565,2147520438,2147298459,2147510390,2147086473,2146926985,2147714166,2147120850,3558,-1,8,25588
1369996379,5807,998.8800048828125000,187.4407043457031200,497.9992980957031000,7.5915498733520510,38.6646614074707000,53,108,98,80,81,10142,2146959360,2147519780,2147297069,2147509568,2147085778,2146931090,2147710683,2147121124,722,0,8,9437
1369999979,5806,998.0300292968750000,185.7843017578125000,500.1030883789062500,7.5262951850891110,38.8099899291992200,52,103,95,79,81,10140,2146961883,2147518390,2147297179,2147516772,2147084864,2146919250,2147718025,2147121627,3145,-1,8,7906
1370003579,5804,997.0399780273438000,189.7783050537109400,500.5853881835937500,7.5113320350646970,38.5566902160644500,53,106,96,80,80,10129,2146960612,2147518308,2147299200,2147509056,2147086610,2146926043,2147717705,2147121152,3050,0,8,50080
1370007179,5803,999.2700195312500000,188.7743988037109400,500.3778991699219000,7.5177698135375980,38.6185913085937500,52,105,96,80,80,10138,2146955922,2147519853,2147297874,2147508370,2147087085,2146923556,2147717897,2147120219,3469,-1,8,32882
1370010779,5807,992.7399902343750000,186.8235015869140600,501.0730895996094000,7.4961991310119630,38.7580909729003900,53,106,97,79,78,10129,2146959478,2147519689,2147297371,2147508032,2147084443,2146920685,2147716059,2147123053,404,-1,8,33771
1370014379,5808,993.8599853515625000,188.0744018554687500,501.3135070800781000,7.4887371063232420,38.6804008483886700,53,104,97,79,81,10125,2146956297,2147517449,2147294720,2147511780,2147086875,2146921115,2147712713,2147119433,729,0,8,16441
1370017979,5806,995.8099975585938000,187.8858032226562500,502.9400939941406000,7.4382510185241700,38.7206687927246100,53,104,97,80,81,10131,2146960009,2147518976,2147293449,2147511049,2147084699,2146926985,2147714669,2147122340,71,0,8,8261
1370021579,5806,991.6400146484375000,176.0637054443359400,503.4721984863281000,7.4217319488525390,39.5308609008789060,51,108,100,79,80,10125,2146957622,2147518875,2147293568,2147510838,2147084708,2146918674,2147718893,2147117952,2933,-1,8,53391
1370025179,5806,991.7399902343750000,190.1878051757812500,504.9023132324219000,7.3773231506347660,38.6050910949707000,53,106,97,81,80,10123,2146959561,2147518829,2147296228,2147514761,2147086171,2146924626,2147717339,2147121545,165,-1,8,46083
1370028779,5806,997.5599975585938000,189.4945068359375000,501.9942016601562500,7.4676117897033690,38.5996589660644500,53,105,97,80,80,10111,2146960338,2147517750,2147297161,2147510582,2147084571,2146922358,2147717293,2147116589,401,0,8,55100
1370032379,5805,1001.8400268554688000,194.1609954833984400,500.7109069824219000,7.5074381828308105,38.2773818969726560,52,107,99,79,79,10112,2146962459,2147515794,2147296941,2147510747,2147084790,2146919094,2147714240,2147123648,1220,0,8,6297
1370035979,5807,1006.7100219726562000,189.9598999023437500,500.3844909667969000,7.5175662040710450,38.5417900085449200,52,103,97,80,80,10108,2146960018,2147521499,2147297005,2147515346,2147083300,2146924324,2147709851,2147120320,990,-1,8,10521
1370039579,5807,1000.3599853515625000,185.6477966308593800,500.8080139160156000,7.5044260025024410,38.8323707580566400,53,105,97,78,80,10110,2146962249,2147517430,2147297600,2147510363,2147083638,2146924864,2147712457,2147121490,1163,0,8,33041
1370043179,5805,995.0599975585938000,191.4568939208984400,502.4577941894531000,7.4532208442687990,38.4806404113769500,52,108,97,80,79,10105,2146959149,2147520320,2147294582,2147512356,2147085851,2146924626,2147716992,2147121051,1065,-1,8,55831
1370046779,5805,992.6900024414062000,188.7032012939453000,503.7838134765625000,7.4120559692382810,38.6822204589843750,52,102,98,81,80,10104,2146958436,2147521709,2147297929,2147512073,2147084827,2146926637,2147718336,2147118272,3487,-1,8,36680
1370050379,5808,1000.6400146484375000,185.4134979248047000,503.0033874511719000,7.4362869262695310,38.8860092163085940,53,105,104,85,79,10107,2146964534,2147519734,2147295780,2147512521,2147086262,2146925339,2147717650,2147122806,899,0,8,54919
1370053979,5803,993.2000122070312000,180.7550048828125000,504.4682006835937500,7.3908038139343260,39.2252388000488300,53,103,100,80,80,10107,2146960512,2147520054,2147295433,2147508406,2147086976,2146923520,2147715904,2147122395,3545,-1,8,27367
1370057579,5807,991.7000122070312000,190.3598022460937500,505.3290100097656000,7.3640718460083010,38.6015586853027340,52,104,98,80,80,10108,2146959323,2147520100,2147296064,2147512941,2147086948,2146923830,2147711908,2147122742,266,0,8,63690
1370061179,5805,994.5100097656250000,191.8697052001953000,505.4624023437500000,7.3599271774291990,38.5063095092773440,52,105,99,81,81,10104,2146959232,2147519049,2147298706,2147513563,2147084745,2146919762,2147712100,2147122651,296,0,8,6877
1370064779,5805,993.1699829101562000,187.6322021484375000,506.1917114257812500,7.3372740745544430,38.7947082519531250,53,104,97,81,80,10100,2146959954,2147519753,2147298834,2147512054,2147082861,2146926628,2147714276,2147124827,3068,-1,8,10168
1370068379,5808,996.8900146484375000,192.6389007568359400,505.5098876953125000,7.3584542274475100,38.4578895568847660,53,104,98,80,80,10103,2146960603,2147515419,2147296530,2147507803,2147084763,2146924781,2147713883,2147123968,260,-1,8,43328
1370071979,5804,997.7600097656250000,188.4201049804687500,505.0422058105469000,7.3729782104492190,38.7229194641113300,53,117,98,79,80,10100,2146963145,2147516928,2147294564,2147511881,2147085019,2146923830,2147716461,2147122121,2760,-1,8,64204
1370075579,5806,995.6500244140625000,196.2872009277343800,504.2015075683594000,7.3990859985351560,38.2042999267578100,53,104,97,80,80,10101,2146958756,2147519625,2147295305,2147514450,2147083547,2146928402,2147718162,2147122221,162,-1,8,8945
1370079179,5803,998.5999755859375000,196.7254028320312500,504.9453125000000000,7.3759870529174805,38.1894187927246100,53,108,97,83,80,10100,2146960356,2147514889,2147296777,2147512905,2147085869,2146924845,2147714980,2147121380,2579,0,8,12913
1370082779,5803,989.3200073242188000,191.5756988525390600,507.6411132812500000,7.2922410964965820,38.5638389587402340,52,112,98,80,79,10099,2146963346,2147518902,2147296813,2147511396,2147082742,2146923282,2147717878,2147123035,3189,-1,8,38121
1370086379,5805,992.0200195312500000,193.0090942382812500,508.1057128906250000,7.2778000831604000,38.4799194335937500,53,105,98,80,80,10097,2146961664,2147519872,2147297252,2147512091,2147085220,2146926774,2147716480,2147122349,2817,0,8,57804
1370089979,5804,993.4099731445312000,194.2019958496093800,506.5137939453125000,7.3272681236267090,38.3760795593261700,52,116,98,80,79,10089,2146961152,2147519753,2147296283,2147511241,2147086619,2146923090,2147714157,2147124132,3359,0,8,2690
1370093579,5806,1003.5599975585938000,197.8618927001953000,505.4790039062500000,7.3594121932983400,38.1272201538085940,52,115,97,81,80,10062,2146962048,2147519744,2147294820,2147513554,2147085686,2146925595,2147716169,2147125705,3462,-1,8,64494
1370094655,5806,996.7399902343750000,197.6564941406250000,504.7952880859375000,7.3806490898132320,38.1280097961425800,52,114,97,80,80,10176,2146960658,2147520301,2147297362,2147510646,2147086317,2146925037,2147723136,2147120466,3080,-1,8,20531
